Weather in Ozyag

Russia / Komi Republic     61°49′11″N   53°26′37″E
temp.,
°C
wind,
m/s
gust,
m/s
humid.,
%
clouds,
%
prec.,
mm/h
press.,
hPa
HPBL,
m
18 january, tue
tue1800:00−7s31193100 0.3 990579
03:00−7s41194100 0.8 991754
06:00−7ssw41193100 0.4 992698
09:00−7ssw41191100 0.6 994632
12:00−6ssw41091100 0.1 996689
15:00−6ssw31092100 0.1 998511
18:00−7ssw3993100 0.1 999403
21:00−7ssw279679 0.2 1000208
19 january, wed
wed1900:00−13ssw119991 0.1 100222
03:00−15sw1110084 0.1 100415
06:00−19wsw1210093 0.0 100521
09:00−22wsw11100100 0.1 100619
12:00−15wsw169879 0.0 1007167
15:00−20sw1210055 0.0 100821
18:00−22ssw1310062 0.0 100941
21:00−21ssw2410083 0.0 100972
20 january, thu
thu2000:00
03:00−14s3128997 0.0 1008312
06:00−11ssw4138786 0.0 1007498
09:00
12:00−8ssw41392100 0.3 1007561
15:00−8ssw51390100 0.3 1008637
18:00−7ssw41390100 0.1 1008628
21:00−8ssw41191100 0.1 1010551
21 january, fri
fri2100:00−8ssw41191100 0.1 1011490
03:00−8ssw31192100 0.1 1013427
06:00−9ssw3109180 0.0 1014378
09:00−10ssw31288100 0.0 1017370
12:00−9ssw31189100 0.0 1018445
15:00−11ssw2791100 0.0 1021151
18:00−12ssw289398 0.0 1022184
21:00−15ssw2596100 0.0 102499
22 january, sat
sat2200:00−18s229969 0.0 102631
03:00−21sse1110080 0.0 102710
06:00−21sse1110089 0.0 102814
09:00−19sse2310080 0.0 102951
12:00−11sse28905 0.0 1029217
15:00−15sse229642 0.0 103134
18:00−16sse249853 0.0 103177
21:00−15sse269854 0.0 103299